Location: Bailleul
(50.3375°N, 2.8513°E)
Time: 05:46:20
(UTC+00:00)

Cosmos 1812 Rocket - Pass Details

Date: 19 April 2021
Orbit: 606 x 631 km, 82.5° (Epoch: 09 May)

Event Time Altitude Azimuth Distance (km) Brightness Sun altitude
Exits shadow 21:04:07 - 206° (SSW) 2,134 6.1 -18.6°
Reaches altitude 10° 21:04:28 10° 207° (SSW) 1,998 6.0 -18.7°
Maximum altitude 21:08:48 53° 284° (WNW) 781 4.3 -19.1°
Drops below altitude 10° 21:13:12 10° 2° (N) 2,024 6.8 -19.6°
Sets 21:15:31 0° 7° (N) 2,938 7.7 -19.8°
